MOLNIYA 3-50

Last updated on Oct. 29, 2020, 5:53 a.m. UTC

1 25847U 99036A   20302.39376707 -.00000193  00000-0 -15432-3 0  9995
2 25847  62.4430  70.7838 7399605 277.0251  11.8951  2.00619493156149
UTC
Height (km)
Latitude
Longitude
Inclination
Orbital Period
UTC large
Height (km)
Speed (km/s)
/
Latitude / Longitude
Inclination (degrees)
Orbital Period (minutes)
Azimuth
Elevation
Range (km)
Doppler Factor
iOS Compass Heading
iOS Angle

Next 30 passes for location: Hong Kong

Rise time Rise Azimuth (degrees) Set time Set Azimuth (degrees) Duration Max altitude (degrees)

No matching passes for this satellites